W4HSV Weather Reports


Display with metric or nautical units.
time (UTC)temp
F
wind
direction
speed
MPH
gust
MPH
rain 1hr
in
rain 24hr
in
rain mn
in
humidity
%
barometer
mb
20210923035042 57 333 3.0 5.0 0.00 0.33 0.33 82 1018.1
20210923034528 57 5 3.0 8.0 0.00 0.33 0.33 82 1018.1
20210923034022 57 338 4.0 8.0 0.00 0.33 0.33 82 1018.0
20210923033546 57 340 4.0 9.0 0.00 0.33 0.33 81 1018.0
20210923033034 57 345 4.0 9.0 0.00 0.33 0.33 81 1017.9
20210923032523 57 339 4.0 9.0 0.00 0.33 0.33 80 1017.9
20210923032048 57 22 5.0 9.0 0.00 0.33 0.33 80 1018.0
20210923031532 58 329 3.0 10.0 0.00 0.33 0.33 79 1018.0
20210923031024 58 5 5.0 12.0 0.00 0.33 0.33 79 1017.9
20210923030548 58 338 7.0 12.0 0.00 0.33 0.33 78 1017.9
20210923030044 58 342 5.0 10.0 0.00 0.33 0.33 78 1017.9
20210923025535 58 337 7.0 11.0 0.00 0.33 0.33 78 1017.8
20210923025020 58 26 6.0 12.0 0.00 0.33 0.33 77 1017.9
20210923024544 59 13 8.0 12.0 0.00 0.33 0.33 77 1018.0
20210923024030 59 15 6.0 14.0 0.00 0.33 0.33 77 1017.9
20210923023547 59 12 7.0 14.0 0.00 0.33 0.33 77 1017.9
20210923023037 59 9 8.0 14.0 0.00 0.33 0.33 77 1017.9
20210923022526 59 355 8.0 11.0 0.00 0.33 0.33 77 1017.9
20210923022047 59 360 6.0 12.0 0.00 0.33 0.33 77 1017.9
20210923021534 59 324 6.0 13.0 0.00 0.33 0.33 77 1017.9
20210923021048 59 17 7.0 13.0 0.00 0.33 0.33 77 1018.0
20210923020540 59 355 6.0 10.0 0.00 0.33 0.33 77 1017.8
20210923020035 59 5 5.0 9.0 0.00 0.33 0.33 77 1017.8
20210923015551 59 355 4.0 9.0 0.00 0.33 0.33 77 1017.8
20210923015038 60 360 5.0 10.0 0.00 0.33 0.33 77 1017.8
20210923014527 60 339 7.0 10.0 0.00 0.33 0.33 77 1017.7
20210923014050 60 360 6.0 9.0 0.00 0.33 0.33 78 1017.8
20210923013540 60 350 4.0 8.0 0.00 0.33 0.33 77 1017.9
20210923013035 60 34 4.0 10.0 0.00 0.33 0.33 77 1017.8
20210923012550 60 13 4.0 10.0 0.00 0.33 0.33 77 1017.9
20210923012041 61 360 5.0 11.0 0.00 0.33 0.33 76 1017.7
20210923011528 61 9 4.0 11.0 0.00 0.33 0.33 76 1017.7
20210923011022 61 328 6.0 12.0 0.00 0.33 0.33 76 1017.5
20210923010541 61 17 7.0 12.0 0.00 0.33 0.33 75 1017.4
20210923010032 62 335 6.0 13.0 0.00 0.33 0.33 75 1017.5
20210923005523 62 330 8.0 13.0 0.00 0.33 0.33 74 1017.4
20210923005044 62 336 8.0 11.0 0.00 0.33 0.33 74 1017.2
20210923004526 62 355 7.0 12.0 0.00 0.33 0.33 73 1017.0
20210923004049 62 339 6.0 16.0 0.00 0.33 0.33 72 1017.0
20210923003542 63 360 7.0 18.0 0.00 0.33 0.33 72 1017.0
20210923003026 63 329 10.0 17.0 0.00 0.33 0.33 72 1016.8
20210923002550 63 342 12.0 17.0 0.00 0.33 0.33 71 1016.8
20210923002036 63 5 12.0 17.0 0.00 0.33 0.33 71 1016.7
20210923001521 63 5 11.0 18.0 0.00 0.33 0.33 70 1016.7
20210923001045 64 336 11.0 19.0 0.00 0.33 0.33 69 1016.7
20210923000542 64 315 11.0 19.0 0.00 0.33 0.33 69 1016.6
20210923000028 64 347 9.0 18.0 0.00 0.33 0.33 69 1016.6
20210922235521 65 344 9.0 15.0 0.00 0.33 0.33 67 1016.6
20210922235037 65 355 9.0 17.0 0.00 0.33 0.33 66 1016.6
20210922234529 65 349 12.0 17.0 0.00 0.33 0.33 65 1016.6
20210922234052 66 13 10.0 17.0 0.00 0.33 0.33 64 1016.6
20210922233538 66 319 11.0 22.0 0.00 0.33 0.33 63 1016.6
20210922233021 66 344 15.0 22.0 0.00 0.33 0.33 63 1016.5
20210922232543 67 21 13.0 18.0 0.00 0.33 0.33 64 1016.5
20210922232037 67 5 12.0 18.0 0.00 0.33 0.33 64 1016.6
20210922231525 67 311 8.0 15.0 0.00 0.33 0.33 64 1016.5
20210922231049 68 327 8.0 12.0 0.00 0.33 0.33 63 1016.5
20210922230538 68 338 8.0 17.0 0.00 0.33 0.33 62 1016.5
20210922230035 69 327 11.0 18.0 0.00 0.33 0.33 60 1016.3
20210922225549 69 340 12.0 23.0 0.00 0.33 0.33 60 1016.3
20210922225045 70 346 14.0 23.0 0.00 0.33 0.33 59 1016.3
20210922224537 70 327 13.0 19.0 0.00 0.33 0.33 58 1016.2
20210922224029 71 339 10.0 21.0 0.00 0.33 0.33 58 1016.2
20210922223540 71 13 9.0 21.0 0.00 0.33 0.33 57 1016.0
20210922223034 72 319 13.0 20.0 0.00 0.33 0.33 55 1016.0
20210922222549 72 316 9.0 15.0 0.00 0.33 0.33 55 1016.0
20210922222042 72 344 9.0 15.0 0.00 0.33 0.33 55 1016.0
20210922221531 72 355 9.0 21.0 0.00 0.33 0.33 54 1016.0
20210922221048 72 304 13.0 21.0 0.00 0.33 0.33 53 1016.0
20210922220537 73 319 10.0 18.0 0.00 0.33 0.33 52 1015.9
20210922220026 73 360 12.0 19.0 0.00 0.33 0.33 52 1015.9
20210922215549 73 301 13.0 19.0 0.00 0.33 0.33 51 1015.9
20210922215041 74 10 11.0 17.0 0.00 0.33 0.33 52 1015.8
20210922214523 73 314 11.0 17.0 0.00 0.33 0.33 52 1015.6
20210922214031 73 337 8.0 23.0 0.00 0.33 0.33 54 1015.8
20210922213549 73 297 11.0 23.0 0.00 0.33 0.33 52 1015.7
20210922213045 73 336 11.0 21.0 0.00 0.33 0.33 52 1015.7
20210922212538 74 326 13.0 21.0 0.00 0.33 0.33 51 1015.5
20210922212023 74 355 11.0 15.0 0.00 0.33 0.33 54 1015.6
20210922211543 74 309 7.0 15.0 0.00 0.33 0.33 56 1015.6
20210922211037 74 342 9.0 23.0 0.00 0.33 0.33 55 1015.4
20210922210533 74 315 12.0 24.0 0.00 0.33 0.33 55 1015.5
20210922210053 73 310 14.0 21.0 0.00 0.33 0.33 56 1015.6
20210922205536 73 340 10.0 17.0 0.00 0.34 0.33 57 1015.6
20210922205029 73 360 11.0 24.0 0.00 0.34 0.33 58 1015.6
20210922204543 73 319 13.0 24.0 0.00 0.34 0.33 57 1015.7
20210922204031 73 288 12.0 22.0 0.00 0.34 0.33 56 1015.7
20210922203525 72 309 14.0 22.0 0.00 0.34 0.33 57 1015.8
20210922203050 72 309 11.0 21.0 0.00 0.34 0.33 60 1015.9
20210922202544 71 296 9.0 21.0 0.00 0.34 0.33 59 1015.9
20210922202032 72 308 12.0 21.0 0.00 0.34 0.33 57 1015.8
20210922201551 72 315 12.0 21.0 0.00 0.34 0.33 57 1015.9
20210922201039 72 302 10.0 24.0 0.00 0.34 0.33 57 1015.9
20210922200526 73 338 12.0 18.0 0.00 0.34 0.33 58 1015.8
20210922200056 72 327 9.0 16.0 0.00 0.34 0.33 63 1015.9
20210922195538 71 304 6.0 16.0 0.00 0.34 0.33 63 1015.8
20210922195023 71 315 10.0 18.0 0.00 0.34 0.33 62 1016.0
20210922194543 71 355 13.0 18.0 0.00 0.34 0.33 60 1016.0
20210922194039 72 330 11.0 18.0 0.00 0.34 0.33 57 1016.0
20210922193530 73 300 8.0 16.0 0.00 0.34 0.33 60 1016.2
20210922193046 73 271 8.0 15.0 0.00 0.34 0.33 62 1016.0
20210922192531 72 300 9.0 19.0 0.00 0.34 0.33 64 1016.1
20210922192028 72 331 10.0 19.0 0.00 0.34 0.33 63 1016.1
20210922191547 72 296 7.0 16.0 0.00 0.34 0.33 65 1016.1
20210922191034 72 311 6.0 16.0 0.00 0.34 0.33 63 1016.1
20210922190526 71 315 9.0 16.0 0.00 0.34 0.33 68 1016.2
20210922190049 70 325 8.0 16.0 0.00 0.34 0.33 68 1016.2
20210922185537 71 350 9.0 17.0 0.00 0.34 0.33 64 1016.4
20210922185027 72 274 11.0 17.0 0.00 0.34 0.33 63 1016.3
20210922184547 72 333 9.0 17.0 0.00 0.34 0.33 62 1016.4
20210922184041 72 318 6.0 16.0 0.00 0.34 0.33 68 1016.5
20210922183533 71 307 8.0 18.0 0.00 0.34 0.33 66 1016.5
20210922183025 72 301 9.0 17.0 0.00 0.34 0.33 67 1016.5
20210922182546 71 308 10.0 17.0 0.00 0.34 0.33 68 1016.5
20210922182037 71 340 8.0 14.0 0.00 0.34 0.33 71 1016.7
20210922181531 71 258 10.0 18.0 0.00 0.34 0.33 69 1016.6
20210922181027 70 340 11.0 19.0 0.00 0.34 0.33 70 1016.7
20210922180553 70 295 12.0 19.0 0.00 0.34 0.33 70 1016.6
20210922180038 70 298 8.0 15.0 0.00 0.34 0.33 69 1016.7
20210922175527 70 296 9.0 13.0 0.00 0.34 0.33 73 1016.6
20210922175041 69 332 7.0 14.0 0.00 0.34 0.33 74 1016.5
20210922174534 68 338 8.0 16.0 0.00 0.34 0.33 75 1016.6
20210922174023 68 318 12.0 20.0 0.00 0.34 0.33 74 1016.8
20210922173547 69 333 14.0 20.0 0.00 0.34 0.33 74 1016.8
20210922173036 68 311 9.0 17.0 0.00 0.34 0.33 76 1016.7
20210922172525 68 321 10.0 16.0 0.00 0.34 0.33 75 1016.7
20210922172045 68 288 9.0 17.0 0.00 0.34 0.33 79 1016.7
20210922171541 67 309 11.0 17.0 0.00 0.34 0.33 76 1016.6
20210922171032 68 305 8.0 13.0 0.00 0.34 0.33 75 1016.5
20210922170525 69 313 5.0 11.0 0.00 0.34 0.33 78 1016.6
20210922170041 68 345 5.0 16.0 0.00 0.34 0.33 77 1016.7
20210922165533 69 312 10.0 16.0 0.00 0.34 0.33 76 1016.5
20210922165022 68 334 8.0 13.0 0.00 0.34 0.33 78 1016.7
20210922164538 67 298 7.0 15.0 0.00 0.34 0.33 81 1016.7
20210922164031 66 300 7.0 15.0 0.00 0.34 0.33 83 1016.9
20210922163546 66 209 9.0 15.0 0.00 0.34 0.33 82 1016.8
20210922163038 66 308 7.0 13.0 0.00 0.34 0.33 83 1016.8
20210922162533 66 281 8.0 13.0 0.00 0.34 0.33 82 1016.9
20210922162050 67 346 8.0 11.0 0.00 0.34 0.33 83 1016.9
20210922161540 66 296 7.0 12.0 0.00 0.34 0.33 84 1017.0
20210922161027 66 5 7.0 13.0 0.00 0.34 0.33 84 1017.0
20210922160546 65 346 10.0 13.0 0.00 0.34 0.33 85 1017.0
20210922160037 64 22 5.0 14.0 0.00 0.34 0.33 90 1017.1
20210922155522 63 303 6.0 14.0 0.00 0.34 0.33 90 1017.1
20210922155040 62 304 5.0 13.0 0.00 0.34 0.33 91 1017.1
20210922154524 62 289 7.0 13.0 0.00 0.34 0.33 90 1017.2
20210922154049 62 298 9.0 13.0 0.00 0.34 0.33 89 1017.3
20210922153527 63 265 8.0 13.0 0.00 0.34 0.33 90 1017.1
20210922153048 63 306 8.0 14.0 0.00 0.34 0.33 89 1017.1
20210922152536 63 325 9.0 17.0 0.00 0.34 0.33 90 1017.2
20210922152026 62 326 10.0 17.0 0.00 0.34 0.33 90 1017.2
20210922151548 62 318 5.0 12.0 0.00 0.34 0.33 92 1017.0
20210922151039 62 319 9.0 13.0 0.00 0.34 0.33 91 1017.0
20210922150525 62 336 9.0 14.0 0.00 0.34 0.33 92 1017.1
20210922150051 62 299 8.0 14.0 0.00 0.34 0.33 92 1017.1
20210922145536 62 304 4.0 8.0 0.00 0.34 0.33 95 1017.0
20210922145025 61 320 4.0 10.0 0.01 0.34 0.33 94 1017.0
20210922144543 61 302 5.0 10.0 0.01 0.34 0.33 93 1017.1
20210922144034 61 313 5.0 10.0 0.01 0.34 0.33 93 1017.1
20210922143523 61 280 5.0 8.0 0.01 0.34 0.33 94 1017.0
20210922143043 61 333 4.0 8.0 0.01 0.34 0.33 94 1017.0
20210922142532 61 320 4.0 8.0 0.01 0.34 0.33 93 1017.0
20210922142052 61 309 5.0 9.0 0.01 0.34 0.33 94 1017.0
20210922141543 61 337 5.0 9.0 0.01 0.34 0.33 95 1016.7
20210922141031 61 312 3.0 6.0 0.01 0.34 0.33 95 1016.8
20210922140520 61 323 2.0 9.0 0.01 0.34 0.33 95 1017.0
20210922140046 60 344 5.0 9.0 0.02 0.34 0.33 94 1016.8
20210922135538 60 301 4.0 5.0 0.02 0.34 0.33 95 1017.0
20210922135030 60 333 3.0 6.0 0.02 0.33 0.32 95 1016.9
20210922134522 60 328 3.0 6.0 0.03 0.33 0.32 94 1017.0
20210922134044 60 298 4.0 10.0 0.03 0.33 0.32 95 1017.0
20210922133539 60 292 5.0 10.0 0.04 0.33 0.32 95 1017.1
20210922133021 60 309 3.0 10.0 0.04 0.33 0.32 95 1016.6
20210922132541 60 348 6.0 11.0 0.05 0.33 0.32 95 1016.6
20210922132029 60 321 7.0 11.0 0.08 0.33 0.32 95 1016.4
20210922131548 60 329 5.0 9.0 0.12 0.33 0.32 95 1016.4
20210922131038 60 23 6.0 10.0 0.17 0.33 0.32 95 1016.1
20210922130534 60 12 4.0 10.0 0.17 0.33 0.32 95 1016.4
20210922130025 60 5 5.0 10.0 0.16 0.32 0.31 95 1016.6
20210922125550 60 350 6.0 9.0 0.16 0.32 0.31 95 1017.0
20210922125032 60 360 6.0 9.0 0.15 0.31 0.30 95 1017.0
20210922124523 60 345 4.0 9.0 0.14 0.30 0.29 95 1017.4
20210922124032 60 337 3.0 11.0 0.14 0.30 0.29 94 1017.4
20210922123525 60 317 7.0 11.0 0.13 0.29 0.28 94 1017.3
20210922123045 60 5 6.0 13.0 0.13 0.29 0.28 94 1017.1
20210922122534 60 326 8.0 15.0 0.11 0.27 0.26 93 1017.1
20210922122049 61 339 11.0 15.0 0.09 0.25 0.24 92 1017.1
20210922121535 61 336 5.0 17.0 0.03 0.19 0.18 92 1017.2
20210922121025 61 285 8.0 17.0 0.01 0.16 0.15 91 1017.0
20210922120548 61 355 9.0 17.0 0.01 0.16 0.15 91 1016.7
20210922120034 62 331 6.0 16.0 0.01 0.16 0.15 91 1016.5
20210922115521 62 348 8.0 16.0 0.01 0.16 0.15 91 1016.5
20210922115044 62 275 9.0 16.0 0.01 0.16 0.15 92 1016.7
20210922114534 62 336 6.0 16.0 0.01 0.16 0.15 92 1016.1
20210922114050 62 18 10.0 16.0 0.01 0.16 0.15 92 1015.9
20210922113537 62 346 10.0 18.0 0.01 0.16 0.15 93 1015.8
20210922113031 62 340 10.0 18.0 0.01 0.16 0.15 93 1015.8
20210922112542 63 355 11.0 20.0 0.01 0.16 0.15 93 1015.8
20210922112030 63 360 12.0 22.0 0.01 0.16 0.15 93 1015.5
20210922111538 64 16 10.0 20.0 0.01 0.16 0.15 94 1015.2
20210922111025 64 360 14.0 20.0 0.00 0.15 0.14 93 1015.1
20210922110546 64 345 13.0 23.0 0.00 0.15 0.14 93 1015.0
20210922110039 65 340 14.0 23.0 0.00 0.15 0.14 94 1014.9
20210922105544 65 306 12.0 19.0 0.00 0.15 0.14 94 1015.0
20210922105029 65 315 10.0 20.0 0.00 0.15 0.14 94 1014.8
20210922104553 65 349 12.0 20.0 0.00 0.15 0.14 94 1014.7
20210922104042 66 344 10.0 20.0 0.00 0.15 0.14 94 1014.5
20210922103537 66 319 11.0 19.0 0.00 0.15 0.14 94 1014.5
20210922103058 66 350 12.0 17.0 0.00 0.15 0.14 94 1014.5
20210922102538 67 333 9.0 15.0 0.00 0.15 0.14 94 1014.5
20210922102031 67 327 10.0 19.0 0.00 0.15 0.14 94 1014.3
20210922101550 67 334 10.0 19.0 0.00 0.15 0.14 94 1014.2
20210922101033 68 308 13.0 19.0 0.00 0.15 0.14 94 1014.0
20210922100546 68 296 9.0 19.0 0.00 0.15 0.14 95 1014.0
20210922100049 68 308 12.0 20.0 0.00 0.15 0.14 95 1013.9
20210922095533 69 288 10.0 20.0 0.00 0.15 0.14 94 1013.5
20210922095051 69 321 10.0 17.0 0.00 0.15 0.14 94 1013.2
20210922094546 70 271 11.0 17.0 0.00 0.15 0.14 95 1013.1
20210922094030 70 275 11.0 17.0 0.00 0.15 0.14 95 1013.1
20210922093543 70 311 8.0 16.0 0.00 0.15 0.14 95 1013.0
20210922093034 71 296 10.0 16.0 0.00 0.15 0.14 95 1013.0
20210922092523 71 307 7.0 12.0 0.00 0.15 0.14 96 1012.9
20210922092050 71 286 5.0 11.0 0.00 0.15 0.14 96 1012.8
20210922091526 71 292 7.0 11.0 0.00 0.15 0.14 96 1012.9
20210922091044 71 303 7.0 13.0 0.01 0.15 0.14 95 1012.8
20210922090536 71 314 10.0 13.0 0.01 0.15 0.14 95 1012.8
20210922090112 71 343 9.0 14.0 0.01 0.15 0.14 95 1012.8
20210922085548 72 311 8.0 14.0 0.01 0.15 0.14 96 1012.8
20210922085042 72 329 8.0 13.0 0.01 0.15 0.14 96 1012.9
20210922084529 72 348 7.0 12.0 0.02 0.15 0.14 96 1012.9
20210922084047 72 300 4.0 9.0 0.04 0.15 0.14 96 1012.9
20210922083529 72 319 5.0 9.0 0.08 0.15 0.14 96 1012.8
20210922083048 72 303 4.0 10.0 0.09 0.15 0.14 96 1012.9
20210922082523 72 284 6.0 9.0 0.12 0.15 0.14 96 1013.0
20210922082046 73 286 5.0 10.0 0.14 0.15 0.14 96 1012.9
20210922081534 73 289 5.0 11.0 0.14 0.15 0.14 96 1013.0
20210922081024 73 302 7.0 11.0 0.13 0.14 0.13 96 1013.0
20210922080547 73 292 5.0 10.0 0.13 0.14 0.13 96 1013.1
20210922080040 73 298 5.0 13.0 0.13 0.14 0.13 96 1013.3
20210922075530 73 284 5.0 13.0 0.13 0.14 0.13 96 1013.1
20210922075050 73 294 3.0 10.0 0.13 0.14 0.13 96 1013.2
20210922074534 73 336 5.0 11.0 0.12 0.13 0.12 96 1013.3
20210922074027 74 323 7.0 11.0 0.10 0.11 0.10 96 1013.4
20210922073545 74 264 4.0 8.0 0.06 0.07 0.06 97 1013.7
20210922073034 74 297 3.0 9.0 0.05 0.06 0.05 96 1013.6
20210922072548 74 321 4.0 9.0 0.02 0.03 0.02 96 1013.7
20210922072024 74 292 2.0 5.0 0.00 0.01 0.00 96 1013.6
20210922071534 74 275 2.0 5.0 0.00 0.01 0.00 97 1013.5
20210922071051 74 196 2.0 3.0 0.00 0.01 0.00 97 1013.6
20210922070547 73 234 1.0 5.0 0.00 0.01 0.00 97 1013.6
20210922070030 73 211 3.0 6.0 0.00 0.01 0.00 97 1013.7
20210922065546 73 236 3.0 6.0 0.00 0.01 0.00 97 1013.8
20210922065031 73 217 1.0 5.0 0.00 0.01 0.00 97 1013.9
20210922064525 73 178 3.0 5.0 0.00 0.01 0.00 97 1014.0
20210922064035 73 205 2.0 5.0 0.00 0.01 0.00 97 1014.1
20210922063526 73 202 3.0 6.0 0.00 0.01 0.00 97 1014.0
20210922063051 73 204 2.0 6.0 0.00 0.01 0.00 97 1014.2
20210922062541 73 246 3.0 5.0 0.00 0.01 0.00 97 1014.2
20210922062031 73 213 3.0 5.0 0.00 0.01 0.00 97 1014.1
20210922061553 73 209 3.0 6.0 0.00 0.01 0.00 97 1014.2
20210922061028 73 213 2.0 4.0 0.00 0.01 0.00 96 1014.2
20210922060550 73 185 1.0 5.0 0.00 0.01 0.00 96 1014.2
20210922060025 73 152 3.0 5.0 0.00 0.01 0.00 97 1014.2
20210922055541 73 192 2.0 4.0 0.00 0.01 0.00 96 1014.5
20210922055031 73 202 2.0 4.0 0.00 0.01 0.00 96 1014.6
20210922054549 73 202 0.0 2.0 0.00 0.01 0.00 96 1014.5
20210922054044 73 202 1.0 2.0 0.00 0.01 0.00 96 1014.5
20210922053530 73 202 1.0 2.0 0.00 0.01 0.00 96 1014.4
20210922053047 73 202 0.0 1.0 0.00 0.01 0.00 95 1014.6
20210922052530 73 202 0.0 2.0 0.00 0.01 0.00 95 1014.7
20210922052047 73 202 1.0 3.0 0.00 0.01 0.00 95 1014.7
20210922051538 74 202 1.0 3.0 0.00 0.01 0.00 95 1014.8
20210922051031 74 138 0.0 0.0 0.00 0.01 0.00 95 1014.8
20210922050529 74 138 0.0 0.0 0.00 0.01 0.00 95 1014.8
20210922050051 74 138 0.0 1.0 0.00 0.01 0.00 95 1014.9
20210922045527 74 138 0.0 2.0 0.00 0.01 0.01 95 1014.9
20210922045050 74 138 1.0 2.0 0.00 0.01 0.01 95 1014.9
20210922044537 74 138 1.0 3.0 0.00 0.01 0.01 95 1014.9
20210922044027 74 131 2.0 3.0 0.00 0.01 0.01 95 1014.8
20210922043523 74 136 1.0 3.0 0.00 0.01 0.01 95 1014.8
20210922043041 74 136 1.0 3.0 0.00 0.01 0.01 95 1015.0
20210922042534 74 146 2.0 4.0 0.00 0.01 0.01 95 1014.9
20210922042025 74 150 2.0 4.0 0.00 0.01 0.01 95 1014.9
20210922041549 74 137 2.0 3.0 0.00 0.01 0.01 96 1015.0
20210922041041 74 122 2.0 3.0 0.00 0.01 0.01 96 1015.1
20210922040528 74 119 3.0 3.0 0.00 0.01 0.01 96 1015.2
20210922040050 74 78 2.0 3.0 0.00 0.01 0.01 95 1015.2
20210922035536 74 283 0.0 1.0 0.00 0.01 0.01 95 1015.3